Zurück zum Katalog

EUTE HOT BIRD 13C

HB 9

AktivKommunikationGEO
NORAD 33459·PAYLOAD·🇪🇺 EU

Gestartet Dec 20, 2008 von Guiana Space Centre

Loading…

TLE

AktuellSource: Space-Track

Epoche: Sep 14, 2026, 10:08 UTC

1 33459U 08065A   26257.42259115 -.00000290  00000-0  00000-0 0  9996
2 33459   3.1738  78.0622 0003572 101.4036 275.7750  1.00270487 48245

Verfolge EUTE HOT BIRD 13C in Echtzeit mit AllMySat

Download on the App Store